False Pass, AK

8:22 AM HDT on July 20, 2017 (GMT -0900)
False Pass

Weather History for PAKF - February, 2014

Change the Weather History Date:

Wednesday, February 26, 2014

  Actual Average (PACD) Record (PACD)
Temperature  
Mean Temperature 38 °F -  
Max Temperature 42 °F 33 °F 46 °F (1955)
Min Temperature 33 °F 23 °F 1 °F (2008)
Degree Days  
Heating Degree Days 28    
Moisture  
Dew Point 36 °F    
Average Humidity 93    
Maximum Humidity 100    
Minimum Humidity 87    
Precipitation  
Precipitation 1.18 in - - ()
Sea Level Pressure  
Sea Level Pressure 29.09 in    
Wind  
Wind Speed 5 mph (NNE)    
Max Wind Speed 17 mph    
Max Gust Speed 26 mph    
Visibility 5 miles    
Events Rain , Snow    
Averages and records for this station are not official NWS values.
T = Trace of Precipitation, MM = Missing Value Source: NWS Daily Summary

Daily Weather History Graph

Daily Weather History Graph

Search for Another Location

Airport or City:

Trip Planner

Search our weather history database for the weather conditions in past years. The results will help you decide how hot, cold, wet, or windy it might be!

Date:

Astronomy

Feb. 26, 2014 Rise Set
Actual Time 7:49 AM HST 6:24 PM HST
Civil Twilight 7:13 AM HST 7:00 PM HST
Nautical Twilight 6:31 AM HST 7:42 PM HST
Astronomical Twilight 5:49 AM HST 8:24 PM HST
Moon 6:05 AM HST (2/26) 3:35 PM HST (2/26)
Length of Visible Light 11h 47m
Length of Day
10h 34m
Waning Crescent, 8% of the Moon is Illuminated
Feb 26
Waning Crescent
Feb 28
New
Mar 8
First Quarter
Mar 16
Full
Mar 23
Last Quarter

Hourly Weather History & Observations

Time (HST) Temp. Windchill Dew Point Humidity Pressure Visibility Wind Dir Wind Speed Gust Speed Precip Events Conditions
12:01 AM 34.0 °F 26.6 °F 32.0 °F 92% 29.09 in 4.0 mi WNW 9.2 mph - 0.05 in Snow Light Snow
1:01 AM 35.1 °F 32.2 °F 32.0 °F 89% 29.35 in 7.0 mi Variable 3.5 mph - 0.06 in   Overcast
1:16 AM 35.6 °F - 32.0 °F 87% 29.06 in 6.0 mi Calm Calm - 0.01 in Snow Light Snow
2:01 AM 35.1 °F 31.0 °F 32.0 °F 89% 29.33 in 3.0 mi Variable 4.6 mph - 0.04 in Rain Rain
2:14 AM 35.6 °F 32.8 °F 32.0 °F 87% 29.05 in 2.0 mi North 3.5 mph - 0.02 in Snow Light Snow
2:18 AM 35.6 °F - 32.0 °F 87% 29.04 in 1.8 mi Calm Calm - 0.03 in Rain Light Rain
2:25 AM 35.6 °F - 32.0 °F 87% 29.04 in 2.0 mi Calm Calm - 0.03 in Rain Light Rain
3:01 AM 33.1 °F 30.0 °F 32.0 °F 96% 29.31 in 2.0 mi SW 3.5 mph - 0.07 in Rain Light Rain
3:49 AM 33.8 °F - 32.0 °F 93% 29.02 in 2.5 mi Calm Calm - 0.04 in Rain Light Rain
4:01 AM 33.8 °F - 32.0 °F 93% 29.01 in 3.0 mi Calm Calm - 0.04 in Rain Light Rain
4:14 AM 33.8 °F 29.6 °F 32.0 °F 93% 29.01 in 5.0 mi SSW 4.6 mph - 0.05 in Rain Light Rain
4:32 AM 33.1 °F - 32.0 °F 96% 29.28 in 6.0 mi Calm Calm - 0.05 in Snow Light Snow
4:39 AM 33.8 °F 27.7 °F 32.0 °F 93% 29.00 in 7.0 mi North 6.9 mph - 0.00 in Snow Light Snow
5:01 AM 34.0 °F 28.0 °F 33.1 °F 96% 29.27 in 7.0 mi North 6.9 mph - 0.03 in Snow Light Snow
5:21 AM 33.8 °F 29.6 °F 33.8 °F 100% 28.99 in 8.0 mi Variable 4.6 mph - 0.02 in Snow Light Snow
5:58 AM 33.8 °F 29.6 °F 32.0 °F 93% 28.99 in 7.0 mi SW 4.6 mph - 0.04 in Snow Light Snow
6:01 AM 33.8 °F 28.6 °F 32.0 °F 93% 28.99 in 7.0 mi SW 5.8 mph - 0.04 in Snow Light Snow
6:13 AM 33.8 °F 30.8 °F 33.8 °F 100% 28.98 in 10.0 mi SW 3.5 mph - 0.05 in Rain Light Rain
7:01 AM 33.8 °F 29.6 °F 33.8 °F 100% 28.98 in 10.0 mi West 4.6 mph - 0.09 in Rain Light Rain
7:15 AM 35.6 °F - 33.8 °F 93% 28.98 in 10.0 mi Calm Calm - 0.10 in Rain Light Rain
7:47 AM 35.6 °F - 33.8 °F 93% 28.99 in 4.0 mi Calm Calm - 0.10 in Rain Light Rain
8:01 AM 35.1 °F 31.0 °F 34.0 °F 96% 29.26 in 7.0 mi SW 4.6 mph - 0.12 in Rain Rain
9:01 AM 35.1 °F - 34.0 °F 96% 29.27 in 4.0 mi Calm Calm - 0.07 in Rain Light Rain
9:14 AM 35.6 °F - 33.8 °F 93% 29.00 in 2.5 mi Calm Calm - 0.03 in Snow Light Snow
9:24 AM 35.6 °F 32.8 °F 33.8 °F 93% 29.00 in 5.0 mi SW 3.5 mph - 0.05 in Snow Light Snow
9:38 AM 35.6 °F - 33.8 °F 93% 29.00 in 2.5 mi Calm Calm - 0.08 in   Overcast
9:49 AM 35.6 °F 30.7 °F 33.8 °F 93% 28.99 in 1.2 mi SSW 5.8 mph - 0.11 in Snow Light Snow
9:56 AM 35.6 °F - 33.8 °F 93% 28.99 in 1.0 mi Calm Calm - 0.12 in   Overcast
10:01 AM 35.1 °F 29.3 °F 34.0 °F 96% 29.27 in 1.0 mi SSW 6.9 mph - 0.13 in   Overcast
10:47 AM 39.2 °F 31.2 °F 37.4 °F 93% 29.00 in 1.5 mi NE 13.8 mph 21.9 mph 0.08 in Rain Light Rain
10:57 AM 41.0 °F 33.1 °F 39.2 °F 93% 28.99 in 2.0 mi NE 15.0 mph 23.0 mph 0.10 in Rain Light Rain
11:01 AM 42.8 °F 36.6 °F 39.2 °F 87% 29.00 in 2.5 mi NE 11.5 mph 23.0 mph 0.10 in Rain Light Rain
11:10 AM 42.8 °F 35.4 °F 39.2 °F 87% 29.00 in 4.0 mi ENE 15.0 mph 20.7 mph 0.11 in Rain Light Rain
11:20 AM 42.8 °F 35.1 °F 39.2 °F 87% 29.00 in 3.0 mi ENE 16.1 mph 20.7 mph 0.13 in Rain Light Rain
11:34 AM 41.0 °F 35.2 °F 39.2 °F 93% 29.00 in 2.5 mi ENE 9.2 mph 19.6 mph 0.14 in Rain Light Rain
11:45 AM 42.1 °F 36.1 °F 39.0 °F 89% 29.28 in 2.5 mi East 10.4 mph 20.7 mph 0.16 in Rain Light Rain
11:56 AM 42.8 °F 37.5 °F 39.2 °F 87% 29.00 in 3.0 mi ENE 9.2 mph - 0.00 in Rain Light Rain
12:01 PM 41.0 °F 34.7 °F 39.2 °F 93% 29.00 in 2.5 mi ENE 10.4 mph - 0.00 in Rain Light Rain
12:19 PM 41.0 °F 33.9 °F 39.2 °F 93% 29.01 in 1.5 mi ENE 12.7 mph 19.6 mph 0.01 in Rain Light Rain
12:26 PM 41.0 °F 35.2 °F 39.0 °F 93% 29.28 in 1.5 mi ENE 9.2 mph - 0.01 in Rain Light Rain
12:40 PM 42.8 °F 35.8 °F 39.2 °F 87% 29.00 in 2.0 mi ENE 13.8 mph 21.9 mph 0.00 in Rain Light Rain
1:01 PM 42.1 °F 34.2 °F 39.0 °F 89% 29.28 in 2.5 mi ENE 16.1 mph 25.3 mph 0.02 in Rain Light Rain
1:16 PM 42.8 °F 34.8 °F 39.2 °F 87% 29.00 in 4.0 mi NE 17.3 mph 26.5 mph 0.02 in Rain Rain
1:53 PM 42.8 °F 37.0 °F 39.2 °F 87% 29.00 in 4.0 mi NE 10.4 mph 23.0 mph 0.06 in Rain Light Rain
2:01 PM 42.1 °F 35.7 °F 39.0 °F 89% 29.27 in 5.0 mi ENE 11.5 mph 18.4 mph 0.07 in Rain Light Rain
3:01 PM 42.8 °F 40.1 °F 39.2 °F 87% 29.00 in 2.5 mi Variable 4.6 mph - 0.10 in Rain Light Rain
3:10 PM 42.8 °F 38.6 °F 39.2 °F 87% 29.00 in 4.0 mi Variable 6.9 mph - 0.11 in Rain Rain
3:36 PM 42.8 °F 39.3 °F 39.2 °F 87% 29.00 in 2.5 mi NNE 5.8 mph - 0.12 in Rain Light Rain
3:53 PM 41.0 °F 39.0 °F 39.2 °F 93% 29.01 in 4.0 mi Variable 3.5 mph - 0.13 in Rain Light Rain
4:01 PM 41.0 °F - 39.9 °F 96% 29.29 in 5.0 mi Calm Calm - 0.14 in Rain Light Rain
4:15 PM 41.0 °F - 39.2 °F 93% 29.01 in 4.0 mi Calm Calm - 0.00 in Rain Light Rain
5:01 PM 41.0 °F - 39.0 °F 93% 29.29 in 9.0 mi Calm Calm - 0.02 in Rain Light Rain
5:43 PM 39.2 °F - 37.4 °F 93% 29.02 in 4.0 mi Calm Calm - 0.03 in Rain Light Rain
6:01 PM 39.2 °F 37.0 °F 37.4 °F 93% 29.02 in 3.0 mi Variable 3.5 mph - 0.03 in Rain Light Rain
6:20 PM 37.4 °F - 37.4 °F 100% 29.03 in 2.5 mi Calm Calm - 0.04 in Rain Light Rain
6:30 PM 37.4 °F - 37.4 °F 100% 29.03 in 3.0 mi Calm Calm - 0.04 in Rain Light Rain
6:38 PM 37.4 °F - 37.4 °F 100% 29.03 in 5.0 mi Calm Calm - 0.05 in Rain Light Rain
6:48 PM 37.4 °F 34.9 °F 37.4 °F 100% 29.03 in 7.0 mi NW 3.5 mph - 0.06 in Rain Light Rain
6:53 PM 37.4 °F 33.8 °F 37.4 °F 100% 29.04 in 7.0 mi NW 4.6 mph - 0.06 in Rain Light Rain
7:01 PM 37.9 °F 34.4 °F 37.9 °F 100% 29.31 in 5.0 mi NW 4.6 mph - 0.06 in Rain Light Rain
7:51 PM 37.4 °F - 37.4 °F 100% 29.05 in 6.0 mi Calm Calm - 0.03 in Rain Light Rain
7:59 PM 37.4 °F 34.9 °F 37.4 °F 100% 29.05 in 8.0 mi SW 3.5 mph - 0.03 in Rain Light Rain
8:01 PM 37.0 °F 34.5 °F 37.0 °F 100% 29.33 in 8.0 mi SW 3.5 mph - 0.04 in Rain Light Rain
8:24 PM 37.4 °F 33.8 °F 37.4 °F 100% 29.06 in 10.0 mi SSW 4.6 mph - 0.01 in Rain Light Rain
9:01 PM 37.4 °F 33.8 °F 37.4 °F 100% 29.07 in 10.0 mi WNW 4.6 mph - 0.03 in Rain Rain
9:20 PM 37.4 °F - 37.4 °F 100% 29.08 in 9.0 mi Calm Calm - 0.05 in Rain Light Rain
10:01 PM 37.0 °F - 36.0 °F 96% 29.38 in 10.0 mi Calm Calm - 0.08 in Rain Light Rain
10:18 PM 37.4 °F - 35.6 °F 93% 29.10 in 10.0 mi Calm Calm - 0.01 in Rain Light Rain
11:01 PM 37.0 °F - 36.0 °F 96% 29.39 in 10.0 mi Calm Calm - 0.01 in Rain Light Rain